Weather History for KIWI - April, 2014

Change the Weather History Date:

Thursday, April 24, 2014

  Actual Average Record
Temperature  
Mean Temperature 48 °F -  
Max Temperature 55 °F 54 °F 68 °F (2008)
Min Temperature 42 °F 31 °F 28 °F (2002)
Degree Days  
Heating Degree Days 16    
Moisture  
Dew Point 30 °F    
Average Humidity 51    
Maximum Humidity 63    
Minimum Humidity 37    
Precipitation  
Precipitation 0.00 in - - ()
Sea Level Pressure  
Sea Level Pressure 29.64 in    
Wind  
Wind Speed 8 mph (NW)    
Max Wind Speed 15 mph    
Max Gust Speed 33 mph    
Visibility 10 miles    
Events      
Averages and records for this station are not official NWS values.
T = Trace of Precipitation, MM = Missing Value Source: NWS Daily Summary

Daily Weather History Graph

Daily Weather History Graph

Search for Another Location

Airport or City:

Trip Planner

Search our weather history database for the weather conditions in past years. The results will help you decide how hot, cold, wet, or windy it might be!

Date:

Astronomy

Apr. 24, 2014 Rise Set
Actual Time 5:41 AM EDT 7:33 PM EDT
Civil Twilight 5:10 AM EDT 8:04 PM EDT
Nautical Twilight 4:32 AM EDT 8:42 PM EDT
Astronomical Twilight 3:51 AM EDT 9:23 PM EDT
Moon 3:00 AM EDT (4/24) 2:35 PM EDT (4/24)
Length of Visible Light 14h 54m
Length of Day
13h 52m
Waning Crescent, 24% of the Moon is Illuminated
Apr 24
Waning Crescent
Apr 29
New
May 6
First Quarter
May 14
Full
May 21
Last Quarter

Hourly Weather History & Observations

Time (EDT) Temp. Windchill Dew Point Humidity Pressure Visibility Wind Dir Wind Speed Gust Speed Precip Events Conditions
12:53 AM 46.0 °F 41.9 °F 33.1 °F 61% 29.51 in 10.0 mi NW 8.1 mph 17.3 mph N/A   Overcast
1:53 AM 46.0 °F 43.1 °F 30.9 °F 56% 29.50 in 10.0 mi Variable 5.8 mph - N/A   Overcast
2:53 AM 45.0 °F 41.8 °F 30.9 °F 58% 29.50 in 10.0 mi Variable 5.8 mph 19.6 mph N/A   Overcast
3:53 AM 44.1 °F 41.5 °F 30.9 °F 60% 29.50 in 10.0 mi Variable 4.6 mph - N/A   Overcast
4:53 AM 42.1 °F 37.1 °F 30.0 °F 62% 29.50 in 10.0 mi NW 8.1 mph - N/A   Partly Cloudy
5:53 AM 42.1 °F - 28.9 °F 60% 29.52 in 10.0 mi North - - N/A   Partly Cloudy
6:53 AM 42.1 °F 38.4 °F 28.9 °F 60% 29.55 in 10.0 mi Variable 5.8 mph - N/A   Overcast
7:53 AM 43.0 °F 38.8 °F 28.0 °F 56% 29.55 in 10.0 mi Variable 6.9 mph - N/A   Clear
8:53 AM 45.0 °F 39.7 °F 27.0 °F 49% 29.56 in 10.0 mi NNW 10.4 mph 26.5 mph N/A   Scattered Clouds
9:53 AM 46.0 °F 39.9 °F 28.0 °F 50% 29.57 in 10.0 mi WNW 13.8 mph 24.2 mph N/A   Mostly Cloudy
10:53 AM 50.0 °F - 28.0 °F 43% 29.58 in 10.0 mi NNW 8.1 mph 23.0 mph N/A   Partly Cloudy
11:53 AM 50.0 °F - 27.0 °F 41% 29.60 in 10.0 mi NW 9.2 mph 23.0 mph N/A   Overcast
12:53 PM 51.1 °F - 27.0 °F 39% 29.61 in 10.0 mi NNW 15.0 mph 31.1 mph N/A   Overcast
1:53 PM 51.1 °F - 27.0 °F 39% 29.61 in 10.0 mi NW 12.7 mph 33.4 mph N/A   Mostly Cloudy
2:53 PM 55.0 °F - 28.9 °F 37% 29.62 in 10.0 mi NW 10.4 mph 28.8 mph N/A   Overcast
3:53 PM 54.0 °F - 28.9 °F 38% 29.64 in 10.0 mi North 10.4 mph 27.6 mph N/A   Mostly Cloudy
4:53 PM 51.1 °F - 28.9 °F 43% 29.68 in 10.0 mi NNW 13.8 mph 24.2 mph N/A   Overcast
5:53 PM 50.0 °F - 28.9 °F 44% 29.72 in 10.0 mi NW 10.4 mph 18.4 mph N/A   Overcast
6:53 PM 48.9 °F - 28.9 °F 46% 29.75 in 10.0 mi NW 9.2 mph 19.6 mph N/A   Overcast
7:53 PM 48.9 °F - 28.9 °F 46% 29.78 in 10.0 mi NNW 9.2 mph 21.9 mph N/A   Overcast
8:53 PM 46.9 °F - 32.0 °F 56% 29.83 in 10.0 mi Variable 5.8 mph - N/A   Overcast
9:53 PM 46.9 °F - 33.1 °F 59% 29.86 in 10.0 mi Variable 6.9 mph - N/A   Overcast
10:53 PM 46.0 °F 43.1 °F 33.1 °F 61% 29.86 in 10.0 mi Variable 5.8 mph - N/A   Overcast
11:53 PM 44.1 °F 41.5 °F 32.0 °F 63% 29.88 in 10.0 mi Variable 4.6 mph - N/A   Mostly Cloudy